Burnsville, North Carolina, United States (28714)
Lat: 35.92N, Lon: 82.3W
Wx Zone: NCZ049
Local Info
Past Weather Observations for Tuesday, October 21, 2014

NOTE: This archive is for the closest National Weather Service station to Burnsville. Information may differ from the station used for current weather conditions.

Click here for Long-term Archive

Time Weather Temperature Dewpoint Humidity Pressure Winds Precip Visibility
23:54
Clear
46°F / 8°C 34°F / 1°C 62% 30.06 in
(1018 mb)
NW 11.5 mph
(NW 19 kph)
- 10SM
22:54
Clear
48°F / 9°C 34°F / 1°C 58% 30.06 in
(1018 mb)
NNW 12.7 mph
(NNW 20 kph)
- 10SM
21:54
Clear
50°F / 10°C 36°F / 2°C 58% 30.04 in
(1017 mb)
N 20.7 mph
(N 33 kph)
- 10SM
20:54
Clear
52°F / 11°C 37°F / 3°C 58% 30.04 in
(1017 mb)
N 21.9 mph
(N 35 kph)
- 10SM
19:54
Partly Cloudy
54°F / 12°C 37°F / 3°C 54% 30.01 in
(1016 mb)
NNW 19.6 mph
(NNW 32 kph)
- 10SM
18:54
Mostly Cloudy
55°F / 13°C 39°F / 4°C 55% 30.01 in
(1016 mb)
N 13.8 mph
(N 22 kph)
- 10SM
17:54
Clear
57°F / 14°C 39°F / 4°C 51% 29.98 in
(1015 mb)
N 5.8 mph
(N 9 kph)
- 10SM
16:54
Clear
61°F / 16°C 39°F / 4°C 45% 29.98 in
(1015 mb)
N 10.4 mph
(N 17 kph)
- 10SM
15:54
Clear
63°F / 17°C 41°F / 5°C 45% 29.95 in
(1014 mb)
NNW 17.3 mph
(NNW 28 kph)
- 10SM
14:54
Clear
64°F / 18°C 41°F / 5°C 43% 29.95 in
(1014 mb)
N 18.4 mph
(N 30 kph)
- 10SM
13:54
Clear
66°F / 19°C 39°F / 4°C 37% 29.95 in
(1014 mb)
N 20.7 mph
(N 33 kph)
- 10SM
12:54
Clear
66°F / 19°C 41°F / 5°C 40% 29.95 in
(1014 mb)
N 15 mph
(N 24 kph)
- 10SM
11:54
Partly Cloudy
64°F / 18°C 45°F / 7°C 49% 29.98 in
(1015 mb)
NNW 9.2 mph
(NNW 15 kph)
- 10SM
10:54
Clear
63°F / 17°C 46°F / 8°C 56% 30.01 in
(1016 mb)
N 8.1 mph
(N 13 kph)
- 10SM
09:54
Clear
59°F / 15°C 48°F / 9°C 68% 30.01 in
(1016 mb)
NNW 5.8 mph
(NNW 9 kph)
- 10SM
08:54
Clear
50°F / 10°C 46°F / 8°C 88% 30.01 in
(1016 mb)
Calm - 10SM
07:54
Partly Cloudy
45°F / 7°C 43°F / 6°C 93% 30.01 in
(1016 mb)
Calm - 10SM
06:54
Mostly Cloudy
43°F / 6°C 43°F / 6°C 100% 30.01 in
(1016 mb)
Calm - 10SM
05:54
Mostly Cloudy
43°F / 6°C 41°F / 5°C 93% 30.01 in
(1016 mb)
Calm - 10SM
05:46
Mostly Cloudy
43°F / 6°C 41°F / 5°C 93% 30.01 in
(1016 mb)
Calm - 10SM
05:38
Mostly Cloudy
Fog And Mist
43°F / 6°C 41°F / 5°C 93% 30.01 in
(1016 mb)
Calm - 3SM
05:35
Mostly Cloudy
Fog And Mist
43°F / 6°C 41°F / 5°C 93% 30.01 in
(1016 mb)
Calm - 1 1/2SM
05:14
Obscured
Fog
43°F / 6°C 41°F / 5°C 93% 30.01 in
(1016 mb)
Calm - 1/2SM
04:54
Obscured
Fog
43°F / 6°C 43°F / 6°C 100% 30.01 in
(1016 mb)
Calm - 1/4SM
04:30
Obscured
Fog
43°F / 6°C 43°F / 6°C 100% 30.01 in
(1016 mb)
Calm - 1/4SM
04:08
Obscured
Fog And Mist
43°F / 6°C 41°F / 5°C 93% 30.01 in
(1016 mb)
Calm - 3/4SM
04:05
Partly Cloudy
Fog And Mist
43°F / 6°C 43°F / 6°C 100% 30.01 in
(1016 mb)
Calm - 1 1/4SM
03:56
Partly Cloudy
Fog And Mist
43°F / 6°C 43°F / 6°C 100% 30.01 in
(1016 mb)
Calm - 2SM
03:54
Partly Cloudy
Fog And Mist
43°F / 6°C 43°F / 6°C 100% 30.01 in
(1016 mb)
Calm - 1 1/4SM
03:51
Obscured
Fog And Mist
43°F / 6°C 43°F / 6°C 100% 30.01 in
(1016 mb)
NNW 4.6 mph
(NNW 7 kph)
- 3/4SM
03:44
Obscured
Fog And Mist
43°F / 6°C 43°F / 6°C 100% 30.01 in
(1016 mb)
NNW 5.8 mph
(NNW 9 kph)
- 1SM
03:42
Partly Cloudy
Fog And Mist
43°F / 6°C 43°F / 6°C 100% 30.01 in
(1016 mb)
NNW 4.6 mph
(NNW 7 kph)
- 1 1/2SM
03:12
Partly Cloudy
Fog And Mist
45°F / 7°C 43°F / 6°C 93% 30.01 in
(1016 mb)
NW 3.5 mph
(NW 6 kph)
- 3SM
03:09
Partly Cloudy
Fog And Mist
45°F / 7°C 43°F / 6°C 93% 30.01 in
(1016 mb)
Calm - 1 3/4SM
03:05
Obscured
Fog And Mist
45°F / 7°C 43°F / 6°C 93% 30.01 in
(1016 mb)
Calm - 1SM
02:58
Partly Cloudy
Fog And Mist
45°F / 7°C 43°F / 6°C 93% 30.01 in
(1016 mb)
Calm - 1 1/4SM
02:54
Partly Cloudy
Fog And Mist
45°F / 7°C 43°F / 6°C 93% 30.01 in
(1016 mb)
Calm - 2 1/2SM
01:54
Clear
46°F / 8°C 45°F / 7°C 93% 30.01 in
(1016 mb)
NW 5.8 mph
(NW 9 kph)
- 10SM
00:54
Partly Cloudy
Fog And Mist
46°F / 8°C 45°F / 7°C 93% 30.01 in
(1016 mb)
NNW 5.8 mph
(NNW 9 kph)
- 3SM
00:36
Partly Cloudy
48°F / 9°C 46°F / 8°C 94% 30.04 in
(1017 mb)
NW 3.5 mph
(NW 6 kph)
- 7SM
00:21
Mostly Cloudy
46°F / 8°C 45°F / 7°C 93% 30.01 in
(1016 mb)
Calm - 10SM
00:12
Partly Cloudy
46°F / 8°C 45°F / 7°C 93% 30.01 in
(1016 mb)
Calm - 10SM
Time Weather Temperature Dewpoint Humidity Pressure Winds Precip Visibility


Weather for websites

WeatherForYou.com, LLC is not responsible for any damages or problems caused by this service. Current weather conditions are obtained from the closest station including government and personal stations which may have varying degrees of accuracy. Weather forecasts are derived from the NOAA NDFD. Like all things, this site belongs to Jesus Christ... He just trusts me to maintain it. If you have any questions or comments email webmaster@weatherforyou.com

Copyright © 2014, WeatherForYou.com LLC. All rights reserved.